Location: Newark
(49.8969°N, 3.3422°E)
Time: 03:02:31
(UTC+00:00)

Envisat - Pass Details

Date: 13 December 2019
Orbit: 764 x 766 km, 98.1° (Epoch: 23 January)

Event Time Altitude Azimuth Distance (km) Brightness Sun altitude
Rises 06:06:28 0° 19° (NNE) 3,246 6.2 -13.5°
Reaches altitude 10° 06:08:55 10° 27° (NNE) 2,315 5.6 -13.1°
Maximum altitude 06:13:44 41° 97° (E) 1,101 4.4 -12.4°
Drops below altitude 10° 06:18:30 10° 168° (SSE) 2,297 6.0 -11.7°
Sets 06:20:55 0° 175° (S) 3,218 6.6 -11.3°
